Home > Weather > Stade > Past weeks

Flag for Germany Past Weather in Stade, Lower Saxony, Germany — Yesterday and Last 2 Weeks

Now
63 °F

Passing clouds.


Feels Like: 63 °F
Forecast: 56 / 69 °F
Wind: 5 mph from South

Location: Hamburg-Finkenwerder

Current Time: Jun 30, 2016 at 8:49:45 AM

Latest Report: Jun 30, 2016 at 7:50 AM


Visibility: N/A

Pressure: 29.83 "Hg

Humidity: 68%

Dew Point: 52 °F

Location of StadeLocation

Past Weather in Stade — Graph

°F

Stade Temperature Yesterday

Maximum temperature yesterday: 68 °F (at 12:50 PM)
Minimum temperature yesterday: 55 °F (at 5:50 AM)
Average temperature yesterday: 64 °F

High & Low Weather Summary for the Past Weeks

 TemperatureHumidityPressure
High90 °F (Jun 23, 5:50 PM)100% (Jun 15, 7:20 AM)30.18 "Hg (Jun 15, 7:20 AM)
Low50 °F (Jun 20, 5:50 AM)41% (Jun 23, 6:20 PM)29.47 "Hg (Jun 15, 7:20 AM)
Average66 °F79%29.91 "Hg
* Reported Jun 15 7:20 AM — Jun 30 7:20 AM, Stade, Weather by CustomWeather, © 2016

Note: Actual official high and low records may vary slightly from our data, if they occured in-between our weather recording intervals... More about our weather records

Advertising

Stade Weather History for the Previous 24 Hours

Scroll right to see more
 ConditionsComfort  
Time TempWeatherWind HumidityBarometerVisibility
7:20 AM
Thu, Jun 30
61 °FPassing clouds.5 mph72%29.83 "HgN/A
6:50 AM61 °FPassing clouds.5 mph72%29.83 "HgN/A
6:20 AM61 °FPassing clouds.5 mph77%29.83 "HgN/A
5:50 AM59 °FClear.3 mph88%29.83 "Hg10 mi
7:50 PM
Wed, Jun 29
66 °FScattered clouds.10 mph68%29.86 "HgN/A
7:20 PM66 °FScattered clouds.12 mph68%29.83 "HgN/A
6:50 PM66 °FScattered clouds.13 mph68%29.83 "HgN/A
6:20 PM66 °FScattered clouds.13 mph64%29.83 "HgN/A
5:50 PM68 °FScattered clouds.14 mph64%29.83 "HgN/A
5:20 PM66 °FScattered clouds.10 mph68%29.83 "HgN/A
4:50 PM66 °FBroken clouds.14 mph64%29.83 "HgN/A
4:20 PM66 °FScattered clouds.15 mph64%29.83 "HgN/A
3:50 PM68 °FScattered clouds.16 mph64%29.83 "HgN/A
3:20 PM66 °FScattered clouds.14 mph68%29.83 "HgN/A
2:50 PM66 °FScattered clouds.16 mph64%29.83 "HgN/A
2:20 PM68 °FScattered clouds.16 mph64%29.80 "HgN/A
1:50 PM68 °FScattered clouds.20 mph56%29.80 "HgN/A
1:20 PM68 °FPassing clouds.17 mph64%29.80 "HgN/A
12:50 PM68 °FPassing clouds.18 mph64%29.80 "HgN/A
12:20 PM64 °FScattered showers. Scattered clouds.12 mph73%29.80 "HgN/A
11:50 AM64 °FScattered showers. Scattered clouds.13 mph78%29.80 "HgN/A
11:20 AM66 °FScattered showers. Scattered clouds.13 mph68%29.77 "HgN/A
10:50 AM66 °FScattered clouds.14 mph73%29.77 "HgN/A
10:20 AM64 °FScattered clouds.10 mph83%29.80 "HgN/A
9:50 AM63 °FScattered clouds.12 mph94%29.77 "HgN/A
9:20 AM63 °FScattered clouds.9 mph94%29.77 "HgN/A
8:50 AM61 °FPassing clouds.6 mph100%29.77 "HgN/A
8:20 AM59 °FScattered clouds.5 mph100%29.77 "HgN/A
Weather by CustomWeather, © 2016

See weather overviewHow to use our weather pages